sat.trackr.live / text

‹ back to catalog

STARLINK-35998

NORAD 68055 · 2026-041R

PAYLOAD ACTIVE UNKNOWN

§ Identity

Operator
Country
US
Launch date
2026-03-02
Launch site
AFETR
Launch vehicle
Mass (kg)
RCS (m²)

Purposes: comms

External: N2YO · Heavens-Above · Gunter

§ Orbital elements

Epoch: 2026-05-25T04:00:03.998880Z

Period
93.85 min
Inclination
53.1602°
Eccentricity
0.0001107
Mean motion
15.34349067 rev/d
Perigee alt
462.1 km
Apogee alt
463.6 km
Semi-major
6,841.0 km
B*
2.3709e-3
RAAN
54.8023°
Arg perigee
94.6804°
Mean anomaly
318.0062°
Rev number
586

§ Raw data

STARLINK-359981 68055U 26041R   26145.16671295  .00080461  00000+0  23709-2 0  99932 68055  53.1602  54.8023 0001107  94.6804 318.0062 15.34349067  5866

JSON: /api/v1/satellites/68055 · /tle

For live sub-satellite position, see the globe view (requires WebGL).

§ Visibility from observer

Set your observer location to see the next 7 days of passes ≥ 10°. The values pass through the URL so the page stays shareable.

No JS? Fill the form by hand. The geolocation button needs JavaScript.